Location: Newark
(35.2672°N, 80.7344°W)
Time: 00:37:50
(UTC+00:00)

Vanguard 1 - Pass Details

Date: 02 February 2020
Orbit: 650 x 3833 km, 34.2° (Epoch: 20 February)

Event Time Altitude Azimuth Distance (km) Brightness Sun altitude
Rises 00:18:54 0° 276° (W) 2,958 14.0 -18.2°
Reaches altitude 10° 00:21:09 10° 268° (W) 2,057 13.0 -18.7°
Maximum altitude 00:25:20 40° 198° (SSW) 1,076 10.4 -19.5°
Enters shadow 00:28:58 18° 138° (SE) 1,997 11.3 -20.2°
